Location: Poughquag
(41.6090°N, 73.6820°W)
Time: 09:09:39
(UTC-05:00)

DIWATA 2B (PO-101) - Pass Details

Date: 17 November 2025
Orbit: 563 x 574 km, 98.1° (Epoch: 07 December)

Event Time Altitude Azimuth Distance (km) Brightness Sun altitude
Exits shadow 16:58:07 - 38° (NE) 2,511 ? -5.2°
Reaches altitude 10° 17:00:26 10° 59° (ENE) 1,862 ? -5.6°
Maximum altitude 17:02:35 14° 92° (E) 1,611 ? -6.0°
Drops below altitude 10° 17:04:44 10° 125° (SE) 1,854 ? -6.4°
Sets 17:07:47 0° 151° (SSE) 2,745 ? -6.9°
